Location: Drocourt
(49.0571°N, 1.7669°E)
Time: 21:35:46
(UTC+00:00)

S-56A Canister/Altair - Pass Details

Date: 13 April 2024
Orbit: 638 x 2488 km, 38.9° (Epoch: 20 May)

Event Time Altitude Azimuth Distance (km) Brightness Sun altitude
Rises 20:43:39 0° 252° (WSW) 4,102 11.7 -18.3°
Reaches altitude 10° 20:46:11 10° 247° (WSW) 3,354 11.1 -18.6°
Maximum altitude 20:54:30 49° 176° (S) 2,150 9.4 -19.6°
Enters shadow 21:01:15 26° 119° (ESE) 3,366 10.2 -20.4°
Drops below altitude 10° 21:06:31 10° 108° (ESE) 4,771 - -21.0°
Sets 21:10:51 0° 104° (ESE) 5,957 - -21.5°
